Location: Newark
(47.9617°N, 8.0103°E)
Time: 01:54:31
(UTC+00:00)

Starlink Launch 2 trailer - Visible Passes

Search period start: 16 December 2019 00:00
Search period end: 26 December 2019 00:00
Orbit: 279 x 281 km, 53.0° (Epoch: 13 November)

Date Brightness Start Highest point End Pass type
(mag) Time Alt. Az. Time Alt. Az. Time Alt. Az.
21 Dec 5.1 17:18:11 10° SSE 17:18:17 10° SSE 17:18:17 10° SSE visible
22 Dec 4.3 17:19:00 10° SSW 17:20:27 19° SSE 17:20:27 19° SSE visible
23 Dec 3.3 17:20:27 10° SW 17:22:32 35° SSE 17:22:32 35° SSE visible
24 Dec 2.3 17:22:11 10° SW 17:24:33 68° S 17:24:33 68° S visible
25 Dec 2.4 17:24:07 10° WSW 17:26:31 67° NW 17:26:31 67° NW visible
